{"data":{"norad_id":48096,"intl_designator":"2021-027E","name":"STARLINK-2417","alt_names":[],"object_type":"PAYLOAD","status":"ACTIVE","operator":null,"country":"US","launch_date":"2021-04-07","launch_site_code":"AFETR","launch_vehicle":null,"mission":null,"orbit_class":"UNKNOWN","rcs_meters":null,"size_class":null,"mass_kg":null,"dimensions":null,"purposes":["comms"],"wikipedia_slug":null,"has_3d_model":false,"image_url":null,"decayed_at":null,"tle_current":{"epoch":"2026-09-20T05:06:32.875200Z","epoch_age_seconds":54039,"freshness":"FRESH","line1":"1 48096U 21027E   26263.21288050  .00008258  00000+0  27505-3 0  9998","line2":"2 48096  53.1607 340.3296 0000387  68.2090 291.8953 15.31995786302311","mean_motion":15.31995786,"eccentricity":3.87e-5,"inclination_deg":53.1607,"raan_deg":340.3296,"arg_perigee_deg":68.209,"mean_anomaly_deg":291.8953,"bstar":0.00027505,"rev_number":30231,"period_min":93.99503661559,"perigee_km":469.59339699515,"apogee_km":470.12343184022,"semimajor_km":6847.9954144177,"source":"CELESTRAK","updated_at":"2026-09-20T09:00:38.761449Z"}}}